TimeCST,TemperatureF,Dew PointF,Humidity,Sea Level PressureIn,VisibilityMPH,Wind Direction,Wind SpeedMPH,Gust SpeedMPH,PrecipitationIn,Events,Conditions,WindDirDegrees,DateUTC
12:15 AM,46.4,35.6,66,30.00,10.0,South,15.0,-,N/A,,Partly Cloudy,170,2013-02-18 06:15:00
12:35 AM,46.4,35.6,66,30.00,10.0,South,12.7,-,N/A,,Clear,170,2013-02-18 06:35:00
12:55 AM,46.4,35.6,66,29.99,10.0,South,13.8,-,N/A,,Clear,170,2013-02-18 06:55:00
1:15 AM,46.4,35.6,66,29.99,10.0,South,12.7,-,N/A,,Clear,170,2013-02-18 07:15:00
1:35 AM,46.4,35.6,66,29.98,10.0,South,15.0,19.6,N/A,,Clear,170,2013-02-18 07:35:00
1:55 AM,46.4,37.4,71,29.98,10.0,South,17.3,23.0,N/A,,Clear,180,2013-02-18 07:55:00
2:15 AM,46.4,37.4,71,29.98,10.0,South,17.3,-,N/A,,Clear,180,2013-02-18 08:15:00
2:35 AM,46.4,37.4,71,29.98,10.0,South,15.0,20.7,N/A,,Clear,190,2013-02-18 08:35:00
2:55 AM,46.4,39.2,76,29.97,10.0,South,20.7,26.5,N/A,,Clear,190,2013-02-18 08:55:00
3:15 AM,48.2,41.0,76,29.97,10.0,SSW,24.2,32.2,N/A,,Clear,200,2013-02-18 09:15:00
3:35 AM,48.2,41.0,76,29.97,10.0,SSW,23.0,28.8,N/A,,Clear,200,2013-02-18 09:35:00
3:55 AM,48.2,41.0,76,29.97,10.0,SSW,21.9,29.9,N/A,,Clear,200,2013-02-18 09:55:00
4:15 AM,48.2,41.0,76,29.97,10.0,SSW,27.6,33.4,N/A,,Clear,200,2013-02-18 10:15:00
4:35 AM,48.2,41.0,76,29.97,10.0,SSW,21.9,29.9,N/A,,Clear,200,2013-02-18 10:35:00
4:55 AM,48.2,41.0,76,29.97,10.0,SSW,24.2,28.8,N/A,,Clear,200,2013-02-18 10:55:00
5:15 AM,48.2,41.0,76,29.98,10.0,SSW,20.7,28.8,N/A,,Clear,200,2013-02-18 11:15:00
5:35 AM,48.2,41.0,76,29.97,10.0,SSW,19.6,-,N/A,,Clear,200,2013-02-18 11:35:00
5:55 AM,48.2,41.0,76,29.97,10.0,SSW,18.4,24.2,N/A,,Clear,200,2013-02-18 11:55:00
6:15 AM,48.2,41.0,76,29.96,10.0,South,18.4,-,N/A,,Clear,190,2013-02-18 12:15:00
6:55 AM,48.2,42.8,82,29.96,10.0,South,17.3,-,N/A,,Clear,180,2013-02-18 12:55:00
7:15 AM,48.2,41.0,76,29.96,10.0,South,18.4,27.6,N/A,,Clear,190,2013-02-18 13:15:00
7:35 AM,48.2,41.0,76,29.96,10.0,South,17.3,26.5,N/A,,Clear,190,2013-02-18 13:35:00
7:55 AM,50.0,41.0,71,29.95,10.0,South,21.9,28.8,N/A,,Partly Cloudy,190,2013-02-18 13:55:00
8:15 AM,50.0,41.0,71,29.94,10.0,South,25.3,33.4,N/A,,Partly Cloudy,180,2013-02-18 14:15:00
8:35 AM,50.0,42.8,76,29.94,10.0,South,25.3,32.2,N/A,,Clear,180,2013-02-18 14:35:00
8:55 AM,53.6,42.8,67,29.94,10.0,South,28.8,36.8,N/A,,Partly Cloudy,190,2013-02-18 14:55:00
9:15 AM,53.6,42.8,67,29.93,10.0,South,24.2,34.5,N/A,,Partly Cloudy,190,2013-02-18 15:15:00
9:35 AM,53.6,42.8,67,29.92,10.0,South,25.3,38.0,N/A,,Clear,180,2013-02-18 15:35:00
9:55 AM,53.6,42.8,67,29.92,10.0,South,28.8,40.3,N/A,,Clear,190,2013-02-18 15:55:00
10:15 AM,51.8,42.8,71,29.93,10.0,South,27.6,36.8,N/A,,Scattered Clouds,190,2013-02-18 16:15:00
10:35 AM,51.8,42.8,71,29.92,10.0,South,29.9,39.1,N/A,,Mostly Cloudy,180,2013-02-18 16:35:00
10:55 AM,50.0,44.6,82,29.91,2.5,South,18.4,28.8,N/A,,Haze,180,2013-02-18 16:55:00
11:15 AM,50.0,46.4,87,29.90,1.5,South,15.0,21.9,N/A,,Mostly Cloudy,180,2013-02-18 17:15:00
11:35 AM,50.0,46.4,87,29.89,2.0,South,23.0,29.9,0.01,,Mostly Cloudy,190,2013-02-18 17:35:00
11:55 AM,50.0,46.4,87,29.88,10.0,South,16.1,-,0.01,,Mostly Cloudy,180,2013-02-18 17:55:00
12:15 PM,50.0,46.4,87,29.86,10.0,South,16.1,20.7,N/A,,Overcast,170,2013-02-18 18:15:00
12:35 PM,50.0,46.4,87,29.85,10.0,South,19.6,29.9,N/A,,Overcast,170,2013-02-18 18:35:00
12:55 PM,50.0,46.4,87,29.83,10.0,South,20.7,28.8,N/A,,Overcast,180,2013-02-18 18:55:00
1:15 PM,50.0,48.2,94,29.82,10.0,South,21.9,31.1,N/A,,Overcast,180,2013-02-18 19:15:00
1:35 PM,50.0,48.2,94,29.80,7.0,South,23.0,28.8,N/A,Rain,Light Rain,180,2013-02-18 19:35:00
1:55 PM,50.0,48.2,94,29.79,5.0,South,19.6,26.5,N/A,,Overcast,180,2013-02-18 19:55:00
2:15 PM,51.8,48.2,88,29.77,10.0,South,21.9,31.1,N/A,,Overcast,180,2013-02-18 20:15:00
2:35 PM,53.6,50.0,88,29.75,10.0,South,20.7,31.1,N/A,Thunderstorm,Thunderstorm,170,2013-02-18 20:35:00
2:55 PM,53.6,50.0,88,29.74,5.0,South,20.7,28.8,N/A,Rain-Thunderstorm,Light Rain,180,2013-02-18 20:55:00
3:15 PM,53.6,48.2,82,29.73,10.0,South,20.7,26.5,N/A,,Overcast,180,2013-02-18 21:15:00
3:35 PM,53.6,50.0,88,29.72,3.0,South,19.6,28.8,0.04,Rain-Thunderstorm,Rain,180,2013-02-18 21:35:00
3:55 PM,53.6,50.0,88,29.70,9.0,South,20.7,27.6,0.05,Thunderstorm,Overcast,180,2013-02-18 21:55:00
4:15 PM,53.6,50.0,88,29.69,6.0,South,24.2,32.2,N/A,Rain,Light Rain,170,2013-02-18 22:15:00
4:55 PM,53.6,50.0,88,29.68,3.0,South,20.7,28.8,0.01,Rain-Thunderstorm,Light Rain,180,2013-02-18 22:55:00
5:15 PM,53.6,50.0,88,29.68,8.0,South,20.7,31.1,N/A,,Overcast,180,2013-02-18 23:15:00
5:55 PM,53.6,50.0,88,29.69,10.0,SSW,20.7,26.5,N/A,Thunderstorm,Thunderstorm,200,2013-02-18 23:55:00
6:35 PM,50.0,46.4,87,29.71,10.0,SSW,11.5,-,0.18,Thunderstorm,Mostly Cloudy,200,2013-02-19 00:35:00
6:55 PM,50.0,46.4,87,29.73,10.0,West,8.1,-,0.19,,Overcast,280,2013-02-19 00:55:00
7:15 PM,50.0,46.4,87,29.73,10.0,West,6.9,-,N/A,,Overcast,270,2013-02-19 01:15:00
7:35 PM,48.2,46.4,93,29.74,10.0,WSW,9.2,-,N/A,,Mostly Cloudy,240,2013-02-19 01:35:00
7:55 PM,50.0,48.2,94,29.75,10.0,West,19.6,-,N/A,,Partly Cloudy,260,2013-02-19 01:55:00
8:15 PM,50.0,46.4,87,29.77,10.0,West,18.4,26.5,N/A,,Mostly Cloudy,270,2013-02-19 02:15:00
8:35 PM,50.0,44.6,82,29.80,10.0,WNW,31.1,36.8,N/A,,Mostly Cloudy,290,2013-02-19 02:35:00
8:55 PM,48.2,41.0,76,29.84,10.0,WNW,27.6,38.0,N/A,,Overcast,300,2013-02-19 02:55:00
9:15 PM,46.4,37.4,71,29.86,10.0,NW,19.6,33.4,N/A,,Overcast,320,2013-02-19 03:15:00
9:35 PM,46.4,37.4,71,29.88,10.0,NW,23.0,29.9,N/A,,Overcast,310,2013-02-19 03:35:00
9:55 PM,44.6,37.4,76,29.90,10.0,NW,15.0,24.2,N/A,,Scattered Clouds,310,2013-02-19 03:55:00
10:15 PM,44.6,37.4,76,29.91,10.0,WNW,11.5,-,N/A,,Mostly Cloudy,300,2013-02-19 04:15:00
10:35 PM,44.6,37.4,76,29.92,10.0,NW,18.4,24.2,N/A,,Mostly Cloudy,310,2013-02-19 04:35:00
10:55 PM,44.6,35.6,71,29.94,10.0,NW,13.8,-,N/A,,Mostly Cloudy,310,2013-02-19 04:55:00
11:15 PM,42.8,35.6,76,29.94,10.0,WNW,11.5,16.1,N/A,,Overcast,300,2013-02-19 05:15:00
11:35 PM,42.8,35.6,76,29.96,10.0,NW,13.8,-,N/A,,Overcast,310,2013-02-19 05:35:00
11:55 PM,44.6,35.6,71,29.97,10.0,NW,16.1,-,N/A,,Overcast,310,2013-02-19 05:55:00